Location: Newark
(43.0000°N, 1.6781°W)
Time: 02:47:02
(UTC+00:00)

AO-85 - Pass Details

Date: 03 December 2022
Orbit: 516 x 753 km, 64.8° (Epoch: 04 January)

Event Time Altitude Azimuth Distance (km) Brightness Sun altitude
Rises 17:04:40 0° 263° (W) 2,987 ? -6.0°
Reaches altitude 10° 17:08:00 10° 286° (WNW) 2,023 ? -6.6°
Maximum altitude 17:10:36 15° 321° (NW) 1,681 ? -7.0°
Drops below altitude 10° 17:13:07 10° 357° (N) 1,940 ? -7.4°
Enters shadow 17:16:04 - 21° (NNE) 2,745 ? -7.9°
